Sauk Centre, MN

8:55 PM CDT on October 18, 2019 (GMT -0500)
Sauk Centre

Weather History for KD39 - August, 2019

Change the Weather History Date:

Saturday, August 10, 2019

  Actual Average (WUND) Record (WUND)
Temperature  
Mean Temperature 63 °F -  
Max Temperature 67 °F - - (-1)
Min Temperature 59 °F - - (-1)
Degree Days  
Heating Degree Days 2    
Growing Degree Days 13 (Base 50)    
Moisture  
Dew Point 60 °F    
Average Humidity 90    
Maximum Humidity 99    
Minimum Humidity 77    
Precipitation  
Precipitation 0.57 in - - ()
Sea Level Pressure  
Sea Level Pressure 29.97 in    
Wind  
Wind Speed 4 mph (ESE)    
Max Wind Speed 10 mph    
Max Gust Speed -    
Visibility 8 miles    
Events Rain    
Averages and records for this station are not official NWS values.
T = Trace of Precipitation, MM = Missing Value Source: NWS Daily Summary

Daily Weather History Graph

Daily Weather History Graph

Search for Another Location

Airport or City:

Astronomy

Aug. 10, 2019 Rise Set
Actual Time 6:13 AM CDT 8:35 PM CDT
Civil Twilight 5:40 AM CDT 9:08 PM CDT
Nautical Twilight 4:59 AM CDT 9:49 PM CDT
Astronomical Twilight 4:12 AM CDT 10:36 PM CDT
Moon 5:25 PM CDT (8/10) 1:46 AM CDT (8/10)
Length of Visible Light 15h 28m
Length of Day
14h 22m
Waxing Gibbous, 79% of the Moon is Illuminated
Aug 10
Waxing Gibbous
Aug 15
Full
Aug 23
Last Quarter
Aug 30
New
Sep 5
First Quarter

Hourly Weather History & Observations

Time (CDT) Temp. Dew Point Humidity Pressure Visibility Wind Dir Wind Speed Gust Speed Precip Events Conditions
12:15 AM 64.6 °F 58.1 °F 79% 29.99 in 10.0 mi Calm Calm - N/A   Overcast
12:16 AM 64.8 °F 58.1 °F 79% 29.98 in 10.0 mi Calm Calm - N/A   Overcast
12:35 AM 64.6 °F 58.6 °F 81% 29.99 in 10.0 mi Calm Calm - N/A   Overcast
12:36 AM 64.6 °F 58.8 °F 82% 29.99 in 10.0 mi Calm Calm - N/A   Overcast
12:55 AM 63.5 °F 58.6 °F 84% 29.98 in 10.0 mi Calm Calm - N/A   Overcast
12:59 AM 63.5 °F 58.5 °F 84% 29.98 in 10.0 mi Calm Calm - N/A   Overcast
1:17 AM 64.8 °F 58.1 °F 79% 29.98 in 10.0 mi East 3.5 mph - N/A   Overcast
1:36 AM 64.4 °F 58.5 °F 81% 29.98 in 10.0 mi SSE 4.6 mph - N/A   Overcast
1:55 AM 63.5 °F 58.5 °F 84% 29.98 in 10.0 mi SE 3.5 mph - N/A   Overcast
1:56 AM 63.5 °F 58.5 °F 84% 29.98 in 10.0 mi SE 3.5 mph - N/A   Overcast
2:15 AM 63.3 °F 58.3 °F 84% 29.98 in 10.0 mi Calm Calm - N/A   Mostly Cloudy
2:19 AM 64.0 °F 57.6 °F 79% 29.98 in 10.0 mi East 3.5 mph - N/A   Mostly Cloudy
2:38 AM 64.6 °F 57.9 °F 79% 29.98 in 10.0 mi ESE 4.6 mph - N/A   Mostly Cloudy
2:55 AM 63.5 °F 58.3 °F 83% 29.98 in 10.0 mi East 4.6 mph - N/A   Mostly Cloudy
3:15 AM 64.4 °F 58.1 °F 80% 29.98 in 10.0 mi East 4.6 mph - N/A   Overcast
3:17 AM 64.4 °F 58.1 °F 80% 29.98 in 10.0 mi East 3.5 mph - N/A   Overcast
3:35 AM 64.4 °F 57.2 °F 77% 29.97 in 10.0 mi East 4.6 mph - N/A   Scattered Clouds
3:36 AM 64.6 °F 57.2 °F 77% 29.97 in 10.0 mi ESE 3.5 mph - N/A   Scattered Clouds
3:55 AM 63.3 °F 58.1 °F 83% 29.97 in 10.0 mi SSE 5.8 mph - N/A   Scattered Clouds
3:56 AM 63.1 °F 58.1 °F 84% 29.97 in 10.0 mi SSE 5.8 mph - N/A   Scattered Clouds
4:15 AM 62.2 °F 59.0 °F 89% 29.97 in 10.0 mi South 4.6 mph - N/A Rain Rain
4:16 AM 62.2 °F 59.2 °F 90% 29.97 in 10.0 mi South 4.6 mph - N/A Rain Rain
4:35 AM 61.9 °F 59.2 °F 91% 29.97 in 10.0 mi South 8.1 mph - N/A   Overcast
4:39 AM 61.7 °F 58.6 °F 90% 29.97 in 10.0 mi South 6.9 mph - N/A   Overcast
4:59 AM 59.9 °F 57.4 °F 91% 29.97 in 7.0 mi SSE 4.6 mph - 0.03 in Rain Light Rain
5:16 AM 59.4 °F 57.0 °F 92% 29.98 in 10.0 mi Calm Calm - 0.02 in Rain Light Rain
5:35 AM 60.1 °F 57.2 °F 90% 29.98 in 7.0 mi ESE 3.5 mph - 0.04 in Rain Rain
5:57 AM 59.9 °F 57.4 °F 91% 29.97 in 10.0 mi ESE 9.2 mph - 0.05 in   Overcast
6:15 AM 60.6 °F 57.2 °F 88% 29.97 in 5.0 mi East 9.2 mph - 0.05 in Rain Heavy Rain
6:16 AM 60.8 °F 57.2 °F 88% 29.97 in 5.0 mi East 8.1 mph - 0.06 in Rain Heavy Rain
6:37 AM 60.4 °F 57.7 °F 91% 29.96 in 10.0 mi ESE 6.9 mph - 0.07 in Rain Light Rain
6:55 AM 61.2 °F 58.1 °F 90% 29.98 in 10.0 mi ESE 3.5 mph - 0.07 in   Overcast
6:56 AM 61.0 °F 58.1 °F 90% 29.98 in 10.0 mi SE 3.5 mph - 0.07 in   Overcast
7:15 AM 60.8 °F 58.3 °F 91% 29.98 in 10.0 mi SE 3.5 mph - N/A Rain Light Rain
7:16 AM 60.8 °F 58.3 °F 91% 29.98 in 10.0 mi SE 4.6 mph - N/A Rain Light Rain
7:35 AM 61.0 °F 58.5 °F 91% 29.97 in 10.0 mi SE 6.9 mph - 0.01 in Rain Rain
7:36 AM 61.0 °F 58.5 °F 91% 29.98 in 10.0 mi SE 6.9 mph - 0.01 in Rain Light Rain
7:59 AM 60.8 °F 58.6 °F 93% 29.98 in 7.0 mi ESE 4.6 mph - 0.03 in Rain Rain
8:16 AM 60.8 °F 59.0 °F 94% 29.98 in 5.0 mi ESE 5.8 mph - 0.04 in Rain Rain
8:35 AM 60.3 °F 59.0 °F 96% 29.98 in 4.0 mi ESE 3.5 mph - 0.10 in Rain Heavy Rain
8:55 AM 60.3 °F 59.0 °F 96% 29.99 in 7.0 mi Calm Calm - 0.15 in Rain Rain
8:56 AM 60.3 °F 59.0 °F 96% 29.99 in 7.0 mi Calm Calm - 0.15 in Rain Rain
9:16 AM 60.4 °F 59.0 °F 95% 30.00 in 7.0 mi ESE 4.6 mph - 0.04 in Rain Rain
9:35 AM 60.3 °F 59.2 °F 96% 29.99 in 5.0 mi ESE 4.6 mph - 0.08 in Rain Rain
9:39 AM 60.1 °F 59.2 °F 97% 29.99 in 5.0 mi ESE 4.6 mph - 0.10 in Rain Rain
9:58 AM 60.6 °F 59.7 °F 97% 29.99 in 5.0 mi SE 4.6 mph - 0.14 in Rain Rain
10:15 AM 61.0 °F 60.1 °F 97% 29.99 in 10.0 mi East 3.5 mph - 0.01 in Rain Light Rain
10:36 AM 62.2 °F 61.0 °F 96% 29.99 in 10.0 mi SE 4.6 mph - 0.01 in   Light Drizzle
10:55 AM 63.0 °F 61.2 °F 94% 29.99 in 10.0 mi SE 5.8 mph - 0.01 in   Mostly Cloudy
11:18 AM 63.5 °F 60.6 °F 90% 29.99 in 10.0 mi SE 5.8 mph - N/A   Mostly Cloudy
11:38 AM 63.1 °F 60.6 °F 91% 29.99 in 10.0 mi ESE 8.1 mph - N/A Rain Light Rain
11:56 AM 63.0 °F 60.8 °F 93% 29.98 in 10.0 mi ESE 6.9 mph - 0.01 in Rain Rain
12:15 PM 62.8 °F 60.8 °F 93% 29.98 in 10.0 mi East 6.9 mph - N/A   Light Drizzle
12:16 PM 62.8 °F 60.8 °F 93% 29.98 in 10.0 mi East 6.9 mph - N/A   Light Drizzle
12:35 PM 62.6 °F 60.8 °F 94% 29.97 in 7.0 mi ESE 9.2 mph - 0.01 in Rain Rain
12:36 PM 62.6 °F 60.8 °F 94% 29.97 in 7.0 mi East 8.1 mph - 0.01 in Rain Rain
12:55 PM 62.8 °F 61.3 °F 95% 29.97 in 7.0 mi East 6.9 mph - 0.03 in Rain Rain
12:56 PM 62.8 °F 61.3 °F 95% 29.97 in 7.0 mi East 6.9 mph - 0.03 in Rain Rain
1:15 PM 63.0 °F 61.7 °F 96% 29.97 in 5.0 mi ENE 5.8 mph - 0.04 in Rain Light Rain
1:37 PM 63.9 °F 62.4 °F 95% 29.97 in 10.0 mi East 8.1 mph - 0.04 in Rain Light Rain
1:56 PM 64.2 °F 62.6 °F 94% 29.97 in 10.0 mi East 9.2 mph - 0.04 in   Mostly Cloudy
2:15 PM 64.8 °F 63.1 °F 94% 29.97 in 10.0 mi East 5.8 mph - N/A Rain Light Rain
2:16 PM 64.8 °F 63.1 °F 94% 29.97 in 10.0 mi East 5.8 mph - N/A Rain Light Rain
2:35 PM 66.2 °F 64.0 °F 93% 29.97 in 10.0 mi East 8.1 mph - N/A   Overcast
2:36 PM 66.2 °F 64.0 °F 93% 29.97 in 10.0 mi East 8.1 mph - N/A   Overcast
2:55 PM 66.7 °F 64.2 °F 92% 29.96 in 10.0 mi ENE 9.2 mph - N/A   Overcast
2:59 PM 66.6 °F 63.9 °F 91% 29.96 in 10.0 mi East 8.1 mph - N/A   Overcast
3:16 PM 67.1 °F 63.7 °F 89% 29.96 in 10.0 mi ENE 10.4 mph - N/A   Overcast
3:36 PM 66.6 °F 63.3 °F 89% 29.96 in 10.0 mi East 6.9 mph - N/A   Overcast
3:55 PM 66.4 °F 63.3 °F 90% 29.95 in 10.0 mi East 6.9 mph - 0.01 in Rain Light Rain
3:56 PM 66.6 °F 63.3 °F 89% 29.95 in 10.0 mi ESE 6.9 mph - 0.01 in Rain Light Rain
4:15 PM 67.1 °F 63.5 °F 88% 29.95 in 10.0 mi ESE 8.1 mph - N/A   Overcast
4:38 PM 67.1 °F 63.5 °F 88% 29.95 in 10.0 mi SE 6.9 mph - N/A   Overcast
4:57 PM 66.7 °F 63.3 °F 89% 29.95 in 10.0 mi ESE 8.1 mph - N/A   Overcast
5:15 PM 66.6 °F 62.8 °F 88% 29.95 in 10.0 mi East 8.1 mph - N/A   Overcast
5:35 PM 66.9 °F 63.5 °F 89% 29.94 in 10.0 mi ESE 8.1 mph - N/A   Overcast
5:55 PM 66.7 °F 63.1 °F 88% 29.95 in 10.0 mi ESE 4.6 mph - N/A   Overcast
5:56 PM 66.7 °F 63.1 °F 88% 29.95 in 10.0 mi ESE 3.5 mph - N/A   Overcast
6:15 PM 66.7 °F 63.3 °F 89% 29.95 in 10.0 mi East 5.8 mph - N/A   Overcast
6:16 PM 66.7 °F 63.5 °F 89% 29.95 in 10.0 mi East 4.6 mph - N/A   Overcast
6:39 PM 66.2 °F 61.7 °F 85% 29.94 in 10.0 mi ESE 8.1 mph - N/A   Overcast
6:56 PM 66.2 °F 61.2 °F 84% 29.94 in 10.0 mi ESE 8.1 mph - N/A   Overcast
7:15 PM 65.7 °F 61.7 °F 87% 29.93 in 10.0 mi ESE 6.9 mph - N/A   Overcast
7:35 PM 65.3 °F 61.9 °F 89% 29.93 in 10.0 mi ESE 5.8 mph - N/A   Overcast
7:36 PM 65.3 °F 61.9 °F 89% 29.93 in 10.0 mi ESE 5.8 mph - N/A   Overcast
7:55 PM 64.9 °F 62.1 °F 90% 29.92 in 10.0 mi SE 6.9 mph - N/A   Overcast
7:56 PM 64.9 °F 62.1 °F 90% 29.92 in 10.0 mi SE 6.9 mph - N/A   Overcast
8:19 PM 64.8 °F 61.3 °F 89% 29.92 in 10.0 mi East 6.9 mph - N/A   Overcast
8:36 PM 64.4 °F 61.0 °F 89% 29.94 in 10.0 mi ESE 5.8 mph - N/A   Overcast
8:56 PM 63.9 °F 60.8 °F 90% 29.95 in 10.0 mi East 5.8 mph - N/A   Overcast
9:15 PM 63.0 °F 61.2 °F 94% 29.96 in 5.0 mi ESE 5.8 mph - N/A   Overcast
9:16 PM 63.0 °F 61.2 °F 94% 29.96 in 5.0 mi ESE 5.8 mph - N/A   Overcast
9:35 PM 62.6 °F 61.5 °F 96% 29.97 in 3.0 mi Calm Calm - N/A   Overcast
9:39 PM 62.6 °F 61.7 °F 97% 29.96 in 3.0 mi Calm Calm - N/A   Overcast
9:57 PM 62.6 °F 61.7 °F 97% 29.97 in 2.5 mi Calm Calm - N/A   Overcast
10:15 PM 62.6 °F 61.9 °F 97% 29.97 in 2.0 mi Calm Calm - N/A   Overcast
10:35 PM 62.6 °F 62.1 °F 98% 29.97 in 2.5 mi Calm Calm - N/A   Overcast
10:36 PM 62.6 °F 62.1 °F 98% 29.97 in 2.5 mi Calm Calm - N/A   Overcast
10:55 PM 62.8 °F 62.2 °F 98% 29.98 in 2.5 mi NNE 3.5 mph - N/A   Overcast
10:56 PM 62.8 °F 62.2 °F 98% 29.97 in 2.5 mi NNE 3.5 mph - N/A   Overcast
11:18 PM 62.8 °F 62.2 °F 98% 29.97 in 2.5 mi Calm Calm - N/A   Overcast
11:36 PM 63.0 °F 62.6 °F 99% 29.98 in 5.0 mi Calm Calm - N/A   Overcast
11:55 PM 63.1 °F 62.6 °F 98% 29.97 in 7.0 mi NE 3.5 mph - N/A   Overcast